| time (UTC) | temp C | wind direction | speed KPH | gust KPH | rain 1hr cm | rain 24hr cm | rain mn cm | humidity % | barometer mb |
| 20260505184536 | 13 | 309 | 9.7 | 12.9 | 0.00 | 0.00 | 0.00 | 42 | 1011.7 |
| 20260505184033 | 13 | 259 | 0.0 | 9.7 | 0.00 | 0.00 | 0.00 | 42 | 1011.7 |
| 20260505183530 | 13 | 260 | 1.6 | 9.7 | 0.00 | 0.00 | 0.00 | 43 | 1011.5 |
| 20260505183027 | 14 | 260 | 0.0 | 0.0 | 0.00 | 0.00 | 0.00 | 46 | 1011.5 |
| 20260505182523 | 13 | 266 | 4.8 | 12.9 | 0.00 | 0.00 | 0.00 | 42 | 1011.5 |
| 20260505182020 | 13 | 221 | 1.6 | 4.8 | 0.00 | 0.00 | 0.00 | 40 | 1011.3 |
| 20260505181517 | 13 | 272 | 8.0 | 9.7 | 0.00 | 0.00 | 0.00 | 42 | 1011.4 |
| 20260505181015 | 13 | 257 | 6.4 | 12.9 | 0.00 | 0.00 | 0.00 | 42 | 1011.3 |
| 20260505180510 | 13 | 250 | 3.2 | 9.7 | 0.00 | 0.00 | 0.00 | 42 | 1011.2 |
| 20260505180009 | 13 | 252 | 4.8 | 9.7 | 0.00 | 0.00 | 0.00 | 40 | 1011.3 |
| 20260505175503 | 13 | 237 | 4.8 | 17.7 | 0.00 | 0.00 | 0.00 | 41 | 1011.0 |
| 20260505175000 | 13 | 248 | 6.4 | 9.7 | 0.00 | 0.00 | 0.00 | 37 | 1011.2 |
| 20260505174457 | 13 | 239 | 4.8 | 4.8 | 0.00 | 0.00 | 0.00 | 39 | 1011.2 |
| 20260505173953 | 13 | 252 | 3.2 | 12.9 | 0.00 | 0.00 | 0.00 | 39 | 1010.9 |
| 20260505173449 | 13 | 271 | 4.8 | 12.9 | 0.00 | 0.00 | 0.00 | 39 | 1011.0 |
| 20260505172946 | 13 | 313 | 8.0 | 12.9 | 0.00 | 0.00 | 0.00 | 38 | 1011.3 |
| 20260505172445 | 13 | 253 | 1.6 | 12.9 | 0.00 | 0.00 | 0.00 | 40 | 1011.3 |
| 20260505171944 | 13 | 338 | 4.8 | 9.7 | 0.00 | 0.00 | 0.00 | 42 | 1011.1 |
| 20260505171441 | 13 | 254 | 3.2 | 9.7 | 0.00 | 0.00 | 0.00 | 42 | 1011.2 |
| 20260505170938 | 13 | 311 | 8.0 | 12.9 | 0.00 | 0.00 | 0.00 | 44 | 1011.5 |
| 20260505170435 | 13 | 268 | 4.8 | 9.7 | 0.00 | 0.00 | 0.00 | 43 | 1011.2 |
| 20260505165930 | 13 | 248 | 4.8 | 4.8 | 0.00 | 0.00 | 0.00 | 43 | 1011.1 |
| 20260505165426 | 13 | 315 | 4.8 | 12.9 | 0.00 | 0.00 | 0.00 | 41 | 1011.1 |
| 20260505164921 | 13 | 253 | 4.8 | 12.9 | 0.00 | 0.00 | 0.00 | 43 | 1011.2 |
| 20260505164419 | 13 | 246 | 4.8 | 9.7 | 0.00 | 0.00 | 0.00 | 42 | 1011.1 |
| 20260505163916 | 13 | 265 | 1.6 | 12.9 | 0.00 | 0.00 | 0.00 | 42 | 1010.9 |
| 20260505163415 | 13 | 256 | 3.2 | 12.9 | 0.00 | 0.00 | 0.00 | 44 | 1011.0 |
| 20260505162914 | 13 | 256 | 6.4 | 9.7 | 0.00 | 0.00 | 0.00 | 44 | 1011.1 |
| 20260505162409 | 13 | 259 | 6.4 | 9.7 | 0.00 | 0.00 | 0.00 | 42 | 1011.2 |
| 20260505161906 | 13 | 274 | 4.8 | 9.7 | 0.00 | 0.00 | 0.00 | 42 | 1011.3 |
| 20260505161403 | 13 | 256 | 4.8 | 9.7 | 0.00 | 0.00 | 0.00 | 40 | 1011.2 |
| 20260505160901 | 13 | 258 | 4.8 | 9.7 | 0.00 | 0.00 | 0.00 | 42 | 1011.0 |
| 20260505160359 | 13 | 245 | 6.4 | 9.7 | 0.00 | 0.00 | 0.00 | 44 | 1011.0 |
| 20260505153337 | 13 | 239 | 4.8 | 12.9 | 0.00 | 0.00 | 0.00 | 46 | 1011.1 |
| 20260505152834 | 13 | 238 | 4.8 | 9.7 | 0.00 | 0.00 | 0.00 | 46 | 1010.9 |
| 20260505152331 | 13 | 255 | 6.4 | 9.7 | 0.00 | 0.00 | 0.00 | 46 | 1011.1 |
| 20260505151826 | 13 | 242 | 4.8 | 9.7 | 0.00 | 0.00 | 0.00 | 47 | 1011.0 |
| 20260505151323 | 12 | 262 | 8.0 | 12.9 | 0.00 | 0.00 | 0.00 | 46 | 1011.1 |
| 20260505150819 | 12 | 242 | 4.8 | 9.7 | 0.00 | 0.00 | 0.00 | 49 | 1011.1 |
| 20260505150316 | 13 | 248 | 6.4 | 9.7 | 0.00 | 0.00 | 0.00 | 43 | 1011.1 |
| 20260505140241 | 11 | 242 | 4.8 | 9.7 | 0.00 | 0.00 | 0.00 | 50 | 1011.3 |
| 20260505130205 | 10 | 218 | 0.0 | 4.8 | 0.00 | 0.00 | 0.00 | 52 | 1011.2 |
| 20260505124655 | 10 | 218 | 0.0 | 0.0 | 0.00 | 0.00 | 0.00 | 56 | 1011.1 |
| 20260505124151 | 9 | 218 | 0.0 | 0.0 | 0.00 | 0.00 | 0.00 | 57 | 1010.9 |
| 20260505123647 | 8 | 218 | 0.0 | 4.8 | 0.00 | 0.00 | 0.00 | 58 | 1010.9 |
| 20260505123144 | 8 | 221 | 0.0 | 0.0 | 0.00 | 0.00 | 0.00 | 58 | 1011.7 |
| 20260505122640 | 8 | 220 | 0.0 | 0.0 | 0.00 | 0.00 | 0.00 | 60 | 1011.3 |
| 20260505122138 | 8 | 218 | 0.0 | 0.0 | 0.00 | 0.00 | 0.00 | 60 | 1011.1 |
| 20260505121634 | 7 | 220 | 0.0 | 0.0 | 0.00 | 0.00 | 0.00 | 65 | 1010.9 |
| 20260505121131 | 7 | 220 | 0.0 | 0.0 | 0.00 | 0.00 | 0.00 | 64 | 1010.8 |
| 20260505120627 | 7 | 221 | 0.0 | 0.0 | 0.00 | 0.00 | 0.00 | 66 | 1011.3 |
| 20260505120123 | 7 | 220 | 0.0 | 0.0 | 0.00 | 0.00 | 0.00 | 64 | 1011.9 |
| 20260505115618 | 7 | 220 | 0.0 | 0.0 | 0.00 | 0.00 | 0.00 | 66 | 1012.1 |
| 20260505115116 | 7 | 220 | 0.0 | 0.0 | 0.00 | 0.00 | 0.00 | 68 | 1011.3 |
| 20260505114612 | 7 | 220 | 0.0 | 0.0 | 0.00 | 0.00 | 0.00 | 67 | 1010.5 |
| 20260505114109 | 7 | 220 | 0.0 | 0.0 | 0.00 | 0.00 | 0.00 | 66 | 1010.3 |
| 20260505113605 | 7 | 220 | 0.0 | 0.0 | 0.00 | 0.00 | 0.00 | 67 | 1010.1 |
| 20260505113102 | 7 | 220 | 0.0 | 0.0 | 0.00 | 0.00 | 0.00 | 65 | 1009.8 |
| 20260505112558 | 7 | 220 | 0.0 | 0.0 | 0.00 | 0.00 | 0.00 | 64 | 1009.7 |
| 20260505112056 | 7 | 220 | 0.0 | 0.0 | 0.00 | 0.00 | 0.00 | 62 | 1009.6 |
| 20260505111550 | 7 | 220 | 0.0 | 0.0 | 0.00 | 0.00 | 0.00 | 60 | 1009.7 |
| 20260505111046 | 7 | 220 | 0.0 | 0.0 | 0.00 | 0.00 | 0.00 | 60 | 1009.8 |
| 20260505110543 | 7 | 220 | 0.0 | 0.0 | 0.00 | 0.00 | 0.00 | 59 | 1010.0 |
| 20260505102015 | 7 | 220 | 0.0 | 4.8 | 0.00 | 0.00 | 0.00 | 60 | 1009.2 |
| 20260505101514 | 7 | 219 | 0.0 | 0.0 | 0.00 | 0.00 | 0.00 | 60 | 1009.1 |
| 20260505101010 | 7 | 219 | 1.6 | 4.8 | 0.00 | 0.00 | 0.00 | 62 | 1009.3 |
| 20260505100507 | 7 | 221 | 0.0 | 0.0 | 0.00 | 0.00 | 0.00 | 63 | 1009.3 |
| 20260505100004 | 7 | 221 | 0.0 | 0.0 | 0.00 | 0.00 | 0.00 | 63 | 1009.0 |
| 20260505095500 | 7 | 221 | 0.0 | 0.0 | 0.00 | 0.00 | 0.00 | 61 | 1009.0 |
| 20260505094956 | 7 | 220 | 0.0 | 4.8 | 0.00 | 0.00 | 0.00 | 62 | 1008.6 |
| 20260505094453 | 7 | 219 | 0.0 | 0.0 | 0.00 | 0.00 | 0.00 | 63 | 1008.7 |
| 20260505093949 | 7 | 222 | 0.0 | 0.0 | 0.00 | 0.00 | 0.00 | 63 | 1008.8 |
| 20260505093446 | 7 | 218 | 0.0 | 0.0 | 0.00 | 0.00 | 0.00 | 62 | 1008.8 |
| 20260505092943 | 7 | 219 | 0.0 | 0.0 | 0.00 | 0.00 | 0.00 | 63 | 1009.4 |
| 20260505092441 | 7 | 219 | 0.0 | 0.0 | 0.00 | 0.00 | 0.00 | 64 | 1009.1 |
| 20260505091938 | 7 | 219 | 0.0 | 0.0 | 0.00 | 0.00 | 0.00 | 64 | 1009.2 |
| 20260505091435 | 7 | 219 | 0.0 | 0.0 | 0.00 | 0.00 | 0.00 | 64 | 1009.2 |
| 20260505090933 | 7 | 219 | 0.0 | 0.0 | 0.00 | 0.00 | 0.00 | 64 | 1009.3 |
| 20260505090431 | 7 | 219 | 0.0 | 0.0 | 0.00 | 0.00 | 0.00 | 63 | 1009.0 |
| 20260505085928 | 7 | 219 | 0.0 | 0.0 | 0.00 | 0.00 | 0.00 | 63 | 1008.8 |
| 20260505085426 | 7 | 219 | 0.0 | 0.0 | 0.00 | 0.00 | 0.00 | 63 | 1008.4 |
| 20260505084924 | 8 | 218 | 0.0 | 0.0 | 0.00 | 0.00 | 0.00 | 62 | 1008.3 |
| 20260505084422 | 8 | 219 | 0.0 | 0.0 | 0.00 | 0.00 | 0.00 | 60 | 1008.1 |
| 20260505083920 | 8 | 233 | 0.0 | 4.8 | 0.00 | 0.00 | 0.00 | 60 | 1008.0 |
| 20260505083417 | 8 | 218 | 0.0 | 0.0 | 0.00 | 0.00 | 0.00 | 63 | 1008.0 |
| 20260505082913 | 8 | 220 | 0.0 | 0.0 | 0.00 | 0.00 | 0.00 | 61 | 1007.5 |
| 20260505082409 | 8 | 217 | 0.0 | 0.0 | 0.00 | 0.00 | 0.00 | 61 | 1007.4 |
| 20260505081906 | 8 | 220 | 0.0 | 0.0 | 0.00 | 0.00 | 0.00 | 59 | 1007.6 |
| 20260505081403 | 8 | 221 | 0.0 | 0.0 | 0.00 | 0.00 | 0.00 | 61 | 1007.7 |
| 20260505080859 | 9 | 233 | 0.0 | 4.8 | 0.00 | 0.00 | 0.00 | 58 | 1007.7 |
| 20260505080355 | 9 | 223 | 1.6 | 4.8 | 0.00 | 0.00 | 0.00 | 58 | 1007.4 |
| 20260505075851 | 9 | 217 | 0.0 | 4.8 | 0.00 | 0.00 | 0.00 | 59 | 1007.1 |
| 20260505075348 | 9 | 215 | 0.0 | 4.8 | 0.00 | 0.00 | 0.00 | 60 | 1007.0 |
| 20260505074845 | 9 | 244 | 3.2 | 4.8 | 0.00 | 0.00 | 0.00 | 61 | 1007.0 |
| 20260505074342 | 10 | 211 | 0.0 | 4.8 | 0.00 | 0.00 | 0.00 | 60 | 1006.8 |
| 20260505073840 | 10 | 220 | 0.0 | 4.8 | 0.00 | 0.00 | 0.00 | 61 | 1006.4 |
| 20260505073338 | 10 | 219 | 0.0 | 0.0 | 0.00 | 0.00 | 0.00 | 61 | 1006.6 |
| 20260505072834 | 10 | 220 | 0.0 | 0.0 | 0.00 | 0.00 | 0.00 | 61 | 1006.8 |
| 20260505072330 | 10 | 220 | 0.0 | 0.0 | 0.00 | 0.00 | 0.00 | 61 | 1006.6 |
| 20260505071826 | 10 | 220 | 0.0 | 0.0 | 0.00 | 0.00 | 0.00 | 61 | 1006.6 |
| 20260505071323 | 10 | 218 | 0.0 | 0.0 | 0.00 | 0.00 | 0.00 | 60 | 1006.4 |
| 20260505070821 | 10 | 220 | 0.0 | 0.0 | 0.00 | 0.00 | 0.00 | 61 | 1006.2 |
| 20260505070318 | 10 | 220 | 0.0 | 0.0 | 0.00 | 0.00 | 0.00 | 59 | 1006.2 |
| 20260505065813 | 11 | 231 | 3.2 | 4.8 | 0.00 | 0.00 | 0.00 | 59 | 1006.2 |
| 20260505065310 | 11 | 227 | 0.0 | 4.8 | 0.00 | 0.00 | 0.00 | 59 | 1006.3 |
| 20260505064807 | 11 | 225 | 1.6 | 4.8 | 0.00 | 0.00 | 0.00 | 58 | 1006.2 |
| 20260505064304 | 11 | 220 | 1.6 | 4.8 | 0.00 | 0.00 | 0.00 | 59 | 1006.3 |
| 20260505063802 | 11 | 223 | 0.0 | 4.8 | 0.00 | 0.00 | 0.00 | 58 | 1006.2 |
| 20260505063258 | 11 | 243 | 1.6 | 4.8 | 0.00 | 0.00 | 0.00 | 57 | 1005.7 |
| 20260505062754 | 11 | 256 | 3.2 | 4.8 | 0.00 | 0.00 | 0.00 | 57 | 1005.8 |
| 20260505062252 | 12 | 246 | 1.6 | 4.8 | 0.00 | 0.00 | 0.00 | 57 | 1005.6 |
| 20260505061749 | 12 | 253 | 1.6 | 4.8 | 0.00 | 0.00 | 0.00 | 57 | 1005.6 |
| 20260505061247 | 12 | 231 | 0.0 | 4.8 | 0.00 | 0.00 | 0.00 | 56 | 1005.6 |
| 20260505060744 | 12 | 283 | 6.4 | 9.7 | 0.00 | 0.00 | 0.00 | 55 | 1005.5 |
| 20260505060241 | 12 | 227 | 4.8 | 9.7 | 0.00 | 0.00 | 0.00 | 54 | 1005.5 |
| 20260505055736 | 12 | 211 | 0.0 | 4.8 | 0.00 | 0.00 | 0.00 | 55 | 1005.5 |
| 20260505055233 | 12 | 276 | 6.4 | 12.9 | 0.00 | 0.00 | 0.00 | 53 | 1005.6 |
| 20260505054730 | 12 | 215 | 0.0 | 4.8 | 0.00 | 0.00 | 0.00 | 55 | 1005.5 |
| 20260505054228 | 12 | 216 | 0.0 | 0.0 | 0.00 | 0.00 | 0.00 | 53 | 1005.5 |
| 20260505053726 | 13 | 218 | 0.0 | 0.0 | 0.00 | 0.00 | 0.00 | 52 | 1005.2 |
| 20260505053222 | 13 | 217 | 0.0 | 4.8 | 0.00 | 0.00 | 0.00 | 52 | 1004.8 |
| 20260505052719 | 13 | 217 | 0.0 | 0.0 | 0.00 | 0.00 | 0.00 | 51 | 1005.1 |
| 20260505052216 | 13 | 228 | 0.0 | 4.8 | 0.00 | 0.00 | 0.00 | 51 | 1004.8 |
| 20260505051713 | 13 | 221 | 1.6 | 4.8 | 0.00 | 0.00 | 0.00 | 50 | 1004.6 |
| 20260505051206 | 13 | 224 | 0.0 | 4.8 | 0.00 | 0.00 | 0.00 | 50 | 1004.5 |
| 20260505050703 | 13 | 230 | 1.6 | 4.8 | 0.00 | 0.00 | 0.00 | 49 | 1004.4 |
| 20260505050201 | 13 | 225 | 0.0 | 4.8 | 0.00 | 0.00 | 0.00 | 48 | 1004.3 |
| 20260505041631 | 15 | 245 | 4.8 | 12.9 | 0.00 | 0.00 | 0.00 | 44 | 1003.3 |
| 20260505041128 | 15 | 264 | 9.7 | 9.7 | 0.00 | 0.00 | 0.00 | 43 | 1003.4 |
| 20260505040625 | 16 | 232 | 0.0 | 9.7 | 0.00 | 0.00 | 0.00 | 45 | 1003.4 |
| 20260505040122 | 16 | 247 | 1.6 | 9.7 | 0.00 | 0.00 | 0.00 | 46 | 1003.5 |
| 20260505035619 | 16 | 230 | 0.0 | 4.8 | 0.00 | 0.00 | 0.00 | 46 | 1003.5 |
| 20260505035115 | 16 | 222 | 0.0 | 4.8 | 0.00 | 0.00 | 0.00 | 47 | 1003.1 |
| 20260505034612 | 16 | 230 | 0.0 | 4.8 | 0.00 | 0.00 | 0.00 | 48 | 1003.1 |
| 20260505034109 | 16 | 222 | 0.0 | 4.8 | 0.00 | 0.00 | 0.00 | 49 | 1003.2 |
| 20260505033605 | 16 | 232 | 0.0 | 4.8 | 0.00 | 0.00 | 0.00 | 48 | 1003.3 |
| 20260505033104 | 16 | 223 | 0.0 | 4.8 | 0.00 | 0.00 | 0.00 | 48 | 1003.5 |
| 20260505032601 | 16 | 221 | 0.0 | 0.0 | 0.00 | 0.00 | 0.00 | 47 | 1003.6 |
| 20260505032057 | 16 | 222 | 0.0 | 0.0 | 0.00 | 0.00 | 0.00 | 47 | 1003.3 |
| 20260505031555 | 16 | 222 | 0.0 | 4.8 | 0.00 | 0.00 | 0.00 | 46 | 1003.4 |
| 20260505031051 | 16 | 223 | 1.6 | 4.8 | 0.00 | 0.00 | 0.00 | 47 | 1003.2 |
| 20260505030548 | 16 | 231 | 1.6 | 4.8 | 0.00 | 0.00 | 0.00 | 46 | 1003.2 |
| 20260505030044 | 16 | 226 | 0.0 | 4.8 | 0.00 | 0.00 | 0.00 | 46 | 1002.9 |
| 20260505025540 | 17 | 226 | 0.0 | 4.8 | 0.00 | 0.00 | 0.00 | 45 | 1002.9 |
| 20260505025039 | 17 | 266 | 3.2 | 9.7 | 0.00 | 0.00 | 0.00 | 46 | 1003.0 |
| 20260505024536 | 17 | 225 | 0.0 | 4.8 | 0.00 | 0.00 | 0.00 | 45 | 1003.0 |
| 20260505024033 | 17 | 226 | 3.2 | 4.8 | 0.00 | 0.00 | 0.00 | 45 | 1002.9 |
| 20260505023530 | 17 | 251 | 6.4 | 9.7 | 0.00 | 0.00 | 0.00 | 44 | 1002.9 |
| 20260505023028 | 17 | 238 | 4.8 | 4.8 | 0.00 | 0.00 | 0.00 | 46 | 1002.7 |
| 20260505022525 | 17 | 224 | 0.0 | 4.8 | 0.00 | 0.00 | 0.00 | 46 | 1002.8 |
| 20260505022022 | 18 | 224 | 0.0 | 4.8 | 0.00 | 0.00 | 0.00 | 46 | 1002.4 |
| 20260505021518 | 18 | 229 | 1.6 | 4.8 | 0.00 | 0.00 | 0.00 | 45 | 1002.2 |
| 20260505021014 | 18 | 266 | 6.4 | 12.9 | 0.00 | 0.00 | 0.00 | 45 | 1002.4 |
| 20260505020509 | 18 | 251 | 4.8 | 9.7 | 0.00 | 0.00 | 0.00 | 47 | 1002.0 |
| 20260505020006 | 18 | 292 | 6.4 | 12.9 | 0.00 | 0.00 | 0.00 | 46 | 1001.9 |
| 20260505015503 | 19 | 224 | 0.0 | 9.7 | 0.00 | 0.00 | 0.00 | 49 | 1001.7 |
| 20260505015000 | 19 | 224 | 1.6 | 4.8 | 0.00 | 0.00 | 0.00 | 50 | 1001.5 |
| 20260505014457 | 19 | 225 | 1.6 | 9.7 | 0.00 | 0.00 | 0.00 | 50 | 1001.5 |
| 20260505013955 | 20 | 222 | 0.0 | 0.0 | 0.00 | 0.00 | 0.00 | 51 | 1001.4 |
| 20260505013451 | 20 | 223 | 0.0 | 0.0 | 0.00 | 0.00 | 0.00 | 49 | 1001.0 |
| 20260505012949 | 20 | 229 | 3.2 | 4.8 | 0.00 | 0.00 | 0.00 | 50 | 1000.8 |
| 20260505012447 | 20 | 220 | 0.0 | 4.8 | 0.00 | 0.00 | 0.00 | 51 | 1000.4 |
| 20260505011943 | 20 | 239 | 3.2 | 4.8 | 0.00 | 0.00 | 0.00 | 51 | 1000.3 |
| 20260505011439 | 20 | 221 | 0.0 | 4.8 | 0.00 | 0.00 | 0.00 | 50 | 999.9 |
| 20260505010936 | 20 | 222 | 3.2 | 4.8 | 0.00 | 0.00 | 0.00 | 50 | 999.9 |
| 20260505010432 | 20 | 262 | 3.2 | 9.7 | 0.00 | 0.00 | 0.00 | 49 | 999.5 |
| 20260505005928 | 21 | 220 | 0.0 | 4.8 | 0.00 | 0.00 | 0.00 | 50 | 999.4 |
| 20260505005425 | 21 | 223 | 1.6 | 9.7 | 0.00 | 0.00 | 0.00 | 48 | 999.4 |
| 20260505004923 | 21 | 235 | 1.6 | 9.7 | 0.00 | 0.00 | 0.00 | 49 | 999.4 |
| 20260505004419 | 22 | 231 | 0.0 | 9.7 | 0.00 | 0.00 | 0.00 | 49 | 999.3 |
| 20260505003916 | 22 | 232 | 0.0 | 4.8 | 0.00 | 0.00 | 0.00 | 48 | 999.0 |
| 20260505003413 | 22 | 232 | 0.0 | 4.8 | 0.00 | 0.00 | 0.00 | 49 | 998.8 |
| 20260505002909 | 22 | 232 | 0.0 | 4.8 | 0.00 | 0.00 | 0.00 | 48 | 998.5 |
| 20260505002406 | 22 | 232 | 0.0 | 4.8 | 0.00 | 0.00 | 0.00 | 46 | 998.3 |
| 20260505001904 | 22 | 232 | 0.0 | 4.8 | 0.00 | 0.00 | 0.00 | 46 | 998.3 |
| 20260505001401 | 22 | 233 | 0.0 | 0.0 | 0.00 | 0.00 | 0.00 | 46 | 998.1 |
| 20260505000859 | 23 | 233 | 0.0 | 4.8 | 0.00 | 0.00 | 0.00 | 45 | 998.1 |
| 20260505000358 | 23 | 234 | 1.6 | 4.8 | 0.00 | 0.00 | 0.00 | 43 | 998.3 |
| 20260504235853 | 23 | 235 | 1.6 | 4.8 | 0.00 | 0.00 | 0.00 | 43 | 998.5 |
| 20260504235350 | 23 | 235 | 0.0 | 4.8 | 0.00 | 0.00 | 0.00 | 43 | 998.2 |
| 20260504234846 | 23 | 236 | 4.8 | 9.7 | 0.00 | 0.00 | 0.00 | 42 | 998.5 |
| 20260504234344 | 23 | 241 | 4.8 | 9.7 | 0.00 | 0.00 | 0.00 | 41 | 998.4 |
| 20260504233840 | 23 | 246 | 6.4 | 9.7 | 0.00 | 0.00 | 0.00 | 41 | 998.3 |
| 20260504233336 | 23 | 238 | 0.0 | 4.8 | 0.00 | 0.00 | 0.00 | 41 | 998.4 |
| 20260504232833 | 23 | 240 | 0.0 | 4.8 | 0.00 | 0.00 | 0.00 | 41 | 998.6 |
| 20260504232330 | 23 | 249 | 4.8 | 9.7 | 0.00 | 0.00 | 0.00 | 41 | 998.7 |
| 20260504231827 | 23 | 246 | 4.8 | 9.7 | 0.00 | 0.00 | 0.00 | 39 | 998.9 |
| 20260504231323 | 23 | 250 | 3.2 | 9.7 | 0.00 | 0.00 | 0.00 | 41 | 998.8 |
| 20260504230819 | 23 | 259 | 8.0 | 9.7 | 0.00 | 0.00 | 0.00 | 40 | 999.0 |
| 20260504230318 | 23 | 279 | 11.3 | 12.9 | 0.00 | 0.00 | 0.00 | 39 | 999.1 |
| 20260504225816 | 24 | 277 | 9.7 | 22.5 | 0.00 | 0.00 | 0.00 | 38 | 999.0 |
| 20260504225312 | 24 | 244 | 1.6 | 9.7 | 0.00 | 0.00 | 0.00 | 42 | 999.1 |
| 20260504224809 | 24 | 247 | 4.8 | 9.7 | 0.00 | 0.00 | 0.00 | 40 | 998.7 |
| 20260504224306 | 25 | 246 | 4.8 | 9.7 | 0.00 | 0.00 | 0.00 | 42 | 998.8 |
| 20260504223803 | 25 | 253 | 3.2 | 12.9 | 0.00 | 0.00 | 0.00 | 40 | 998.9 |
| 20260504223258 | 25 | 252 | 4.8 | 9.7 | 0.00 | 0.00 | 0.00 | 39 | 998.8 |
| 20260504222755 | 25 | 257 | 4.8 | 9.7 | 0.00 | 0.00 | 0.00 | 40 | 998.9 |
| 20260504222252 | 25 | 249 | 8.0 | 9.7 | 0.00 | 0.00 | 0.00 | 39 | 998.9 |
| 20260504221750 | 25 | 255 | 4.8 | 9.7 | 0.00 | 0.00 | 0.00 | 40 | 998.7 |
| 20260504221247 | 26 | 255 | 3.2 | 9.7 | 0.00 | 0.00 | 0.00 | 40 | 998.9 |
| 20260504220743 | 26 | 270 | 6.4 | 12.9 | 0.00 | 0.00 | 0.00 | 38 | 998.9 |
| 20260504220241 | 26 | 240 | 6.4 | 9.7 | 0.00 | 0.00 | 0.00 | 38 | 999.1 |
| 20260504215738 | 25 | 244 | 6.4 | 9.7 | 0.00 | 0.00 | 0.00 | 38 | 999.1 |
| 20260504215234 | 25 | 251 | 8.0 | 9.7 | 0.00 | 0.00 | 0.00 | 38 | 999.2 |
| 20260504214730 | 25 | 269 | 9.7 | 12.9 | 0.00 | 0.00 | 0.00 | 38 | 999.3 |
| 20260504214227 | 26 | 300 | 14.5 | 17.7 | 0.00 | 0.00 | 0.00 | 36 | 999.3 |
| 20260504213724 | 25 | 247 | 9.7 | 17.7 | 0.00 | 0.00 | 0.00 | 38 | 999.1 |
| 20260504213220 | 25 | 246 | 4.8 | 9.7 | 0.00 | 0.00 | 0.00 | 39 | 999.4 |
| 20260504212717 | 25 | 309 | 8.0 | 12.9 | 0.00 | 0.00 | 0.00 | 37 | 999.4 |
| 20260504212214 | 26 | 258 | 6.4 | 12.9 | 0.00 | 0.00 | 0.00 | 37 | 999.3 |
| 20260504211711 | 26 | 263 | 6.4 | 12.9 | 0.00 | 0.00 | 0.00 | 36 | 999.2 |
| 20260504211207 | 26 | 307 | 11.3 | 27.4 | 0.00 | 0.00 | 0.00 | 35 | 999.6 |
| 20260504210705 | 26 | 257 | 4.8 | 12.9 | 0.00 | 0.00 | 0.00 | 38 | 999.4 |
| 20260504210201 | 26 | 272 | 8.0 | 17.7 | 0.00 | 0.00 | 0.00 | 38 | 999.6 |
| 20260504205659 | 26 | 262 | 6.4 | 12.9 | 0.00 | 0.00 | 0.00 | 37 | 999.6 |
| 20260504205156 | 26 | 314 | 17.7 | 22.5 | 0.00 | 0.00 | 0.00 | 37 | 999.6 |
| 20260504204654 | 26 | 273 | 8.0 | 9.7 | 0.00 | 0.00 | 0.00 | 37 | 999.6 |
| 20260504204153 | 26 | 286 | 8.0 | 17.7 | 0.00 | 0.00 | 0.00 | 38 | 999.7 |
| 20260504203651 | 26 | 237 | 9.7 | 12.9 | 0.00 | 0.00 | 0.00 | 38 | 999.5 |
| 20260504203148 | 26 | 250 | 8.0 | 9.7 | 0.00 | 0.00 | 0.00 | 38 | 999.7 |
| 20260504202643 | 26 | 326 | 12.9 | 17.7 | 0.00 | 0.00 | 0.00 | 37 | 999.8 |
| 20260504202140 | 26 | 258 | 8.0 | 9.7 | 0.00 | 0.00 | 0.00 | 37 | 999.9 |
| 20260504201637 | 26 | 290 | 14.5 | 17.7 | 0.00 | 0.00 | 0.00 | 36 | 1000.0 |
| 20260504201135 | 26 | 273 | 9.7 | 17.7 | 0.00 | 0.00 | 0.00 | 36 | 1000.1 |
| 20260504200632 | 26 | 323 | 8.0 | 17.7 | 0.00 | 0.00 | 0.00 | 37 | 1000.0 |
| 20260504200128 | 26 | 280 | 9.7 | 17.7 | 0.00 | 0.00 | 0.00 | 37 | 1000.1 |
| 20260504195624 | 26 | 258 | 8.0 | 22.5 | 0.00 | 0.00 | 0.00 | 36 | 1000.0 |
| 20260504195121 | 26 | 313 | 11.3 | 17.7 | 0.00 | 0.00 | 0.00 | 36 | 1000.4 |
| 20260504194618 | 26 | 246 | 4.8 | 9.7 | 0.00 | 0.00 | 0.00 | 39 | 1000.3 |
| 20260504194114 | 26 | 266 | 9.7 | 22.5 | 0.00 | 0.00 | 0.00 | 37 | 1000.1 |
| 20260504193610 | 26 | 258 | 9.7 | 17.7 | 0.00 | 0.00 | 0.00 | 35 | 1000.3 |
| 20260504193109 | 26 | 277 | 9.7 | 17.7 | 0.00 | 0.00 | 0.00 | 37 | 1000.3 |
| 20260504192606 | 26 | 271 | 9.7 | 12.9 | 0.00 | 0.00 | 0.00 | 34 | 1000.5 |
| 20260504192104 | 26 | 248 | 4.8 | 12.9 | 0.00 | 0.00 | 0.00 | 39 | 1000.4 |
| 20260504191602 | 26 | 312 | 12.9 | 17.7 | 0.00 | 0.00 | 0.00 | 36 | 1000.5 |
| 20260504191058 | 25 | 333 | 8.0 | 12.9 | 0.00 | 0.00 | 0.00 | 36 | 1000.3 |
| 20260504190554 | 26 | 277 | 11.3 | 12.9 | 0.00 | 0.00 | 0.00 | 35 | 1000.6 |
| 20260504190050 | 26 | 279 | 6.4 | 9.7 | 0.00 | 0.00 | 0.00 | 38 | 1000.5 |
| 20260504185548 | 26 | 297 | 6.4 | 12.9 | 0.00 | 0.00 | 0.00 | 37 | 1000.5 |
| 20260504185044 | 26 | 307 | 11.3 | 12.9 | 0.00 | 0.00 | 0.00 | 37 | 1000.6 |